CZ-6A DEB, 60664

Orbit data source: Space-Track

CZ-6A DEB, 60664 is space debris in LEO originally from a launch on Tue, 06 Aug 2024 UTC launched from the Taiyaun Space Center, China (TSC). Debris objects in space refer to the collection of defunct objects orbiting the Earth. Examples of debris include non-operational satellites, rocket bodies, and fragments generated from explosions, collisions, or faulty payload assembly.

Loading next visibility...
Identifier
60664, 2024-140BR
Orbit
LEO
Country
Flag of CNCN / PRC
Related business
Manufacturer
SAST
Mission
Spacecraft
Bus & Motor
Unknown
Mass
Unknown
Launch date (UTC)
2024-08-06 (2 years ago)
Launch vehicle
Unknown
Launch site
Taiyaun Space Center, China (TSC)
Object type
Payload
Rocket body
Debris
Shape & HBR
Unknown shape, 2.0 m
Radar Cross Section
Large (>1 m²)

Expand to show TLE details & history
Last TLE update: 13 hours ago

TLE from 13 hours ago
0 CZ-6A DEB
1 60664U 24140BR  26171.31169225  .00000584  00000-0  12612-3 0  9991
2 60664  89.0395 273.2615 0110221 258.9574  99.9222 14.53307734 98738
Epoch: 2026-06-20T07:28Z
TLE epoch observation values (Epoch: 2026-06-20T07:28:50.210Z)
Latitude
-0.00008°
Longitude
-107.47584°
Altitude
732.275 km
Speed
7.481 km/s
True Right ascension
18h 13m 02s
True Declination
0° 00' 00"
Sunlit
Object was in full shadow at epoch
Visualization orbit readout
Latitude
Unknown
Longitude
Unknown
Altitude
Unknown
Speed
Unknown
Apparent Right ascension
Unknown
Apparent Declination
Unknown
Sunlit
N/A
Visualization observer readout
Local Sidereal Time
07:21:20
Azimuth
Unknown
Elevation
Unknown
Doppler factor
Unknown
Orbital elements
Apogee altitude
789.914 km
Perigee altitude
633.623 km
Semi-major axis
7,089.905 km
Eccentricity
0.01102
Inclination
89.0395°
RAAN
273.2615°
Arg. of periapsis
258.9574°
True anomaly
101.1633°
Mean anomaly
99.9222°
Eccentric anomaly
100.54306°
Mean motion
3.63565 °/min
Orbital period
99.02 mins
BSTAR
0.00012612
Loading maneuver chart data...
Computing Atmospheric mass density...
Loading historical data...
Loading historical data...
Loading historical data...
Loading historical data...
Loading historical data...
Loading historical data...
Loading historical data...

Documentation

Showing up to 5 results
|